OSCAR 7 (AO-7) 1 07530U 74089B 26208.54125306 -.00000024 00000+0 14195-3 0 9996 2 07530 101.9910 222.2088 0012579 55.4579 98.9910 12.53698780365572 PHASE 3B (AO-10) 1 14129U 83058B 26209.15539845 -.00000001 00000+0 00000+0 0 9990 2 14129 25.9480 212.8256 5997236 126.9194 304.3387 2.05870810296338 UOSAT 2 (UO-11) 1 14781U 84021B 26208.89491605 .00001517 00000+0 15949-3 0 9990 2 14781 97.8089 174.0242 0008950 56.2673 303.9397 14.90879901263198 LUSAT (LO-19) 1 20442U 90005G 26208.01974548 .00000124 00000+0 60864-4 0 9996 2 20442 98.8846 230.9213 0012686 89.7372 270.5265 14.34133627908105 EYESAT A (AO-27) 1 22825U 93061C 26209.18485647 .00000089 00000+0 50996-4 0 9999 2 22825 98.6858 276.5785 0008004 348.0839 12.0153 14.30951892712860 ITAMSAT (IO-26) 1 22826U 93061D 26209.15202964 .00000100 00000+0 54448-4 0 9996 2 22826 98.6806 276.4674 0008190 330.0594 30.0119 14.31379762713173 RADIO ROSTO (RS15) 1 23439U 94085A 26209.17902527 -.00000016 00000+0 75134-3 0 9999 2 23439 64.8132 236.9212 0157417 356.3284 3.6474 11.27583830300520 JAS-2 (FO-29) 1 24278U 96046B 26209.12182700 -.00000020 00000+0 16688-4 0 9993 2 24278 98.5209 52.3826 0349712 350.4111 9.0468 13.53275883478703 TECHSAT 1B (GO-32) 1 25397U 98043D 26209.22668029 .00000058 00000+0 45155-4 0 9990 2 25397 99.0096 203.0256 0002374 94.4379 265.7070 14.24435555457170 ISS (ZARYA) 1 25544U 98067A 26209.15252568 .00010831 00000+0 20282-3 0 9992 2 25544 51.6320 97.3682 0007093 345.6120 14.4666 15.49220842578109 PCSAT (NO-44) 1 26931U 01043C 26209.15836765 .00000130 00000+0 79324-4 0 9991 2 26931 67.0508 138.3015 0005805 267.7866 92.2572 14.31969474296316 SAUDISAT 1C (SO-50) 1 27607U 02058C 26208.68108592 .00001287 00000+0 16839-3 0 9991 2 27607 64.5529 3.6894 0074146 254.9838 104.3054 14.83123076270467 CUTE-1 (CO-55) 1 27844U 03031E 26208.99142194 .00000300 00000+0 14846-3 0 9997 2 27844 98.6749 217.0391 0010760 69.7499 290.4835 14.24358480197480 CUBESAT XI-IV (CO-57) 1 27848U 03031J 26209.00040448 .00000261 00000+0 13361-3 0 9990 2 27848 98.6781 216.7277 0010741 86.3370 273.9036 14.23640597197189 MOZHAETS 4 (RS22) 1 27939U 03042A 26209.23227932 .00000908 00000+0 14781-3 0 9998 2 27939 98.3479 34.7547 0012113 133.5526 313.3025 14.73534179221595 CUBESAT XI-V 1 28895U 05043F 26209.16898863 .00001465 00000+0 23740-3 0 9996 2 28895 98.3031 5.6643 0015276 77.4019 282.8895 14.72732709107788 CUTE-1.7+APD II (CO-65) 1 32785U 08021C 26209.21146608 .00005203 00000+0 32592-3 0 9996 2 32785 97.8303 191.5008 0006950 243.3844 116.6673 15.09807315991388 SEEDS II (CO-66) 1 32791U 08021J 26208.92036169 .00020623 00000+0 62704-3 0 9991 2 32791 97.7535 208.8069 0004293 133.7191 226.4407 15.34065834993539 YUBILEINY (RS30) 1 32953U 08025A 26209.14229058 .00000017 00000+0 52642-4 0 9997 2 32953 82.5068 329.9647 0019003 219.4699 140.4997 12.43181265824782 KKS-1 (KISEKI) 1 33499U 09002H 26209.13981808 .00001358 00000+0 17303-3 0 9999 2 33499 98.1167 132.2300 0008447 148.0748 212.0978 14.83217571942269 SWISSCUBE 1 35932U 09051B 26208.19188562 .00001065 00000+0 21960-3 0 9997 2 35932 98.3994 116.7712 0008163 87.5249 272.6886 14.62550556895004 BEESAT-1 1 35933U 09051C 26208.97524049 .00000878 00000+0 18571-3 0 9993 2 35933 98.3921 117.1175 0006555 97.1994 262.9952 14.61779814895140 ITUPSAT1 1 35935U 09051E 26207.70021734 .00000860 00000+0 18720-3 0 9995 2 35935 98.4007 114.9728 0008652 111.5509 248.6613 14.60493495894501 XIWANG-1 (HOPE-1) 1 36122U 09072B 26209.20739865 .00000151 00000+0 51112-3 0 9990 2 36122 100.4042 162.3883 0007895 135.9947 224.1796 13.16441625798407 O/OREOS (USA 219) 1 37224U 10062C 26209.11242237 .00002292 00000+0 22090-3 0 9998 2 37224 71.9712 347.6226 0014910 340.3842 19.6753 14.93897087122750 JUGNU 1 37839U 11058B 26208.88983197 .00000423 00000+0 81081-4 0 9996 2 37839 19.9613 61.1368 0018622 165.9503 308.5242 14.13786693764799 SRMSAT 1 37841U 11058D 26209.21402866 .00000371 00000+0 57503-4 0 9990 2 37841 19.9704 171.1400 0011534 295.5726 92.2208 14.11583453763621 STRAND-1 1 39090U 13009E 26208.43633813 .00000292 00000+0 11233-3 0 9998 2 39090 98.3940 27.6848 0009831 108.4259 251.7998 14.37185087702847 ZACUBE-1 (TSHEPISOSAT) 1 39417U 13066B 26208.93109270 .00004598 00000+0 35397-3 0 9994 2 39417 97.7984 171.4630 0043922 114.5451 246.0361 15.01401617686843 GOMX-1 1 39430U 13066Q 26209.17609770 .00001137 00000+0 17711-3 0 9992 2 39430 97.6463 47.0532 0127174 306.2801 52.6711 14.69568897675934 CUBEBUG-2 (LO-74) 1 39440U 13066AA 26208.85361079 .00003346 00000+0 30990-3 0 9992 2 39440 97.8912 158.0168 0055677 252.2037 107.3103 14.94034888683065 FUNCUBE-1 (AO-73) 1 39444U 13066AE 26208.88425532 .00009722 00000+0 59256-3 0 9994 2 39444 97.8293 181.1998 0037637 66.5944 293.9236 15.09983837685805 UWE-3 1 39446U 13066AG 26208.85116148 .00002914 00000+0 25094-3 0 9992 2 39446 97.8729 165.2126 0048221 181.9058 178.1988 14.97272963683663 UNISAT-6 1 40012U 14033C 26209.21097221 .00002343 00000+0 25452-3 0 9993 2 40012 97.7921 1.2165 0043421 293.7919 65.8748 14.88416064652264 DUCHIFAT-1 1 40021U 14033M 26208.64244665 .00185061 00000+0 12500-2 0 9993 2 40021 98.0406 273.7856 0004496 226.2328 133.8563 15.74514710662099 QB50P1 1 40025U 14033R 26209.00398244 .00009582 00000+0 46279-3 0 9995 2 40025 98.0966 223.0303 0010485 88.1650 272.0783 15.18844824659228 LILACSAT-2 1 40908U 15049K 26209.21111516 .00020547 00000+0 33290-3 0 9994 2 40908 97.4620 247.6414 0008677 103.7627 256.4592 15.52779418602115 FOX-1A (AO-85) 1 40967U 15058D 26209.13150366 .00004772 00000+0 41880-3 0 9992 2 40967 64.7750 151.7220 0133388 40.9293 320.1739 14.91174078119679 CAS-2T & KS-1Q 1 41847U 16066G 26209.17069721 .00000716 00000+0 10927-3 0 9990 2 41847 98.3807 284.4380 0341486 5.4297 355.0449 14.44788632510714 RADFXSAT (FOX-1B) 1 43017U 17073E 26209.14690911 .00007868 00000+0 33964-3 0 9999 2 43017 97.4653 75.5276 0148916 186.4494 173.4825 15.13224540471580 DIWATA-2B 1 43678U 18084H 26209.18059542 .00001598 00000+0 13154-3 0 9991 2 43678 98.1218 47.1878 0011937 43.4683 316.7478 15.00603078422366 ES'HAIL 2 1 43700U 18090A 26209.17968286 .00000148 00000+0 00000+0 0 9999 2 43700 0.0175 61.7908 0002458 94.9587 239.5529 1.00271132 28081 FOX-1CLIFF (AO-95) 1 43770U 18099N 26209.09619448 .00013197 00000+0 49206-3 0 9992 2 43770 97.4368 269.2081 0008483 190.8862 169.2195 15.27523472419460 ITASAT 1 43786U 18099AE 26209.11961819 .00007267 00000+0 34458-3 0 9998 2 43786 97.4006 259.8209 0011898 201.2980 158.7761 15.19524774419127 JY1SAT (JO-97) 1 43803U 18099AX 26209.11863177 .00020709 00000+0 61259-3 0 9991 2 43803 97.4107 272.1241 0007326 120.8497 239.3468 15.34910961419903 UWE-4 1 43880U 18111E 26209.08553860 .00040526 00000+0 75826-3 0 9996 2 43880 97.5832 139.4347 0008248 151.9008 208.2688 15.48570737417100 TIANYAN 01 1 44881U 19093C 26209.17188041 .00001172 00000+0 13808-3 0 9999 2 44881 97.7520 280.4009 0012423 317.5738 42.4517 14.86579462357501 RS-44 & BREEZE-KM R/B 1 44909U 19096E 26208.26799597 -.00000004 00000+0 -66215-4 0 9992 2 44909 82.5246 313.0750 0218249 50.8858 311.1425 12.79748797307473 SALSAT 1 46495U 20068K 26209.01933591 .00008656 00000+0 29739-3 0 9991 2 46495 97.8861 214.5891 0010563 149.9566 210.2281 15.30333587321600 XW-3 (CAS-9) 1 50466U 21131B 26209.21967035 .00000297 00000+0 10540-3 0 9991 2 50466 98.4990 301.3877 0003689 354.3490 5.7657 14.41390792241024 GREENCUBE (IO-117) 1 53109U 22080E 26208.18285488 -.00000003 00000+0 00000+0 0 9994 2 53109 70.1377 284.3383 0009094 280.8075 79.1561 6.42583419 94631 UMKA 1 (RS40S) 1 57172U 23091G 26209.21043213 .00005991 00000+0 27093-3 0 9999 2 57172 97.5030 267.7554 0011718 343.9468 16.1394 15.21247623170240 CUBESX-HSE 3 (RS42S) 1 57178U 23091N 26209.20028976 .00015086 00000+0 48730-3 0 9990 2 57178 97.5074 275.3277 0008646 310.4936 49.5551 15.32170335170709 MONITOR-3 (RS58S) 1 57180U 23091Q 26209.18698289 .00011949 00000+0 43148-3 0 9992 2 57180 97.5064 272.9495 0009816 320.4618 39.5904 15.28595881170550 MONITOR-4 (RS57S) 1 57182U 23091S 26209.16373534 .00011266 00000+0 40593-3 0 9998 2 57182 97.5058 272.8995 0009815 320.9489 39.1041 15.28684437170553 MONITOR-2 (RS39S) 1 57184U 23091U 26209.15259103 .00004945 00000+0 23758-3 0 9994 2 57184 97.5050 267.1736 0010107 338.2623 21.8181 15.19256533170178 SVYATOBOR 1 (RS60S) 1 57187U 23091X 26209.14813159 .00009905 00000+0 37334-3 0 9999 2 57187 97.5070 273.2039 0007645 314.2070 45.8540 15.27253029170564 VIZARD-METEO (RS38S) 1 57189U 23091Z 26209.17249894 .00019177 00000+0 52706-3 0 9995 2 57189 97.5074 279.5096 0005213 281.0496 79.0161 15.37246103170984 POLYTECH-UNIVERSE 3 (R*) 1 57191U 23091AB 26209.17414573 .00005510 00000+0 26230-3 0 9995 2 57191 97.5026 266.6994 0014760 353.1703 6.9328 15.19471659170178 UTMN 2 (RS27S) 1 57203U 23091AP 26209.19588888 .00014826 00000+0 46727-3 0 9995 2 57203 97.5070 277.0066 0006002 294.7366 65.3251 15.32981674170826 KUZGTU 1 (RS47S) 1 57217U 23091AV 26209.16346078 .00012924 00000+0 43704-3 0 9999 2 57217 97.5045 274.0799 0008973 316.0645 43.9882 15.30727086170645 SONATE-2 1 59112U 24043Q 26208.92795815 .00047274 00000+0 54491-3 0 9994 2 59112 97.5566 1.9292 0006007 62.0250 298.1614 15.61803488134248 MESAT1 1 60209U 24125G 26209.14164248 .00084783 00000+0 75783-3 0 9992 2 60209 97.2223 67.6875 0009780 72.4354 287.7975 15.68060304115973 OOV-CUBE (TUBSAT-30) 1 60240U 24128F 26209.10804405 .00002391 00000+0 18993-3 0 9997 2 60240 61.9951 82.8687 0039375 142.9598 217.4223 15.02922683112260 COLIBRI-S (RS67S) 1 61746U 24199M 26209.15963751 .00025635 00000+0 46763-3 0 9994 2 61746 97.2935 83.4216 0009874 122.6131 237.6075 15.49370330143754 HORS 3 (RS81S) 1 61753U 24199U 26209.17343426 .00044004 00000+0 58985-3 0 9995 2 61753 97.2914 85.9016 0008234 120.0742 240.1331 15.57813757143931 HORS 4 (RS82S) 1 61754U 24199V 26209.18814737 .00067567 00000+0 72076-3 0 9991 2 61754 97.2851 87.4158 0007636 115.2231 244.9821 15.63705229144040 SIT-2086 1 61764U 24199AF 26209.20143758 .00048785 00000+0 70019-3 0 9999 2 61764 97.2871 86.2642 0008874 108.6644 251.5575 15.55939690140809 HYPERVIEW 1G (RS66S) 1 61772U 24199AP 26209.09461424 .00308185 37777-4 93096-3 0 9997 2 61772 97.2760 91.2921 0007827 129.7977 230.3988 15.92101893141149 ALTAIR (RS65S) 1 61779U 24199AW 26209.18262317 .00011281 00000+0 30579-3 0 9993 2 61779 97.2977 78.2719 0013478 150.9810 209.2187 15.37713030143416 ASRTU-1 (AO-123) 1 61781U 24199AY 26209.14344176 .00008605 00000+0 24520-3 0 9991 2 61781 97.2947 77.4489 0014420 154.5499 205.6458 15.36221825140213 SAMSAT-IONOSPHERE (RS7*) 1 61784U 24199BB 26209.19113317 .00059871 00000+0 70029-3 0 9996 2 61784 97.2876 86.1385 0010117 122.2065 238.0175 15.61328414143959 RTU MIREA 1 (RS51S) 1 61785U 24199BC 26209.17566297 .00080909 00000+0 78976-3 0 9999 2 61785 97.2858 87.1959 0010014 119.0884 241.1380 15.65880786140877 TEVEL2-4 1 63213U 25052D 26208.20046728 .00020041 00000+0 57403-3 0 9994 2 63213 97.3851 104.6857 0002085 30.6703 329.4663 15.35954659 76250 TEVEL2-5 1 63214U 25052E 26208.22572217 .00019518 00000+0 56262-3 0 9993 2 63214 97.3850 104.6472 0002290 32.3645 327.7739 15.35761076 76259 TEVEL2-6 1 63215U 25052F 26208.23897430 .00019211 00000+0 55444-3 0 9993 2 63215 97.3858 104.6452 0002209 33.5282 326.6102 15.35725425 76256 TEVEL2-1 1 63217U 25052H 26208.21738020 .00018953 00000+0 55724-3 0 9995 2 63217 97.3828 104.1985 0002996 34.0260 326.1175 15.35142068 76235 TEVEL2-3 1 63218U 25052J 26209.18813017 .00022063 00000+0 64589-3 0 9999 2 63218 97.3830 105.1983 0002696 38.5202 321.6233 15.35247884 76383 TEVEL2-2 1 63219U 25052K 26209.19514176 .00021196 00000+0 62175-3 0 9990 2 63219 97.3827 105.1807 0002814 32.3975 327.7441 15.35193169 76380 OTP-2 1 63235U 25052AB 26209.19167822 .00009496 00000+0 38862-3 0 9995 2 63235 97.3820 101.0134 0007175 34.3503 325.8197 15.24510975 76117 TEVEL2-9 1 63237U 25052AD 26208.50894344 .00017643 00000+0 55354-3 0 9995 2 63237 97.3893 103.7786 0006259 21.3432 338.8070 15.33081855 76204 TEVEL2-7 1 63238U 25052AE 26209.21082362 .00018677 00000+0 59131-3 0 9999 2 63238 97.3886 104.3778 0006246 19.1217 341.0258 15.32781838 76309 TEVEL2-8 1 63239U 25052AF 26208.95832927 .00018470 00000+0 58519-3 0 9990 2 63239 97.3892 104.1013 0006285 19.9482 340.2005 15.32758854 76260 INNOSAT 16 (RS92S7) 1 64878U 25155C 26209.19092094 .00006740 00000+0 26553-3 0 9994 2 64878 97.4591 176.2070 0011806 49.4184 310.8079 15.25866860 86929 GEOSCAN 6 (RS92S6) 1 64879U 25155D 26209.17444090 .00011713 00000+0 39439-3 0 9993 2 64879 97.4580 177.9133 0009030 45.3554 314.8422 15.30889128 87035 GEOSCAN 1 (RS92S1) 1 64880U 25155E 26209.15994558 .00012561 00000+0 41413-3 0 9999 2 64880 97.4575 178.0844 0008923 45.8332 314.3641 15.31552560 87048 239ALFEROV (RS61S) 1 64881U 25155F 26209.19813669 .00017849 00000+0 54368-3 0 9994 2 64881 97.4574 178.8297 0008587 46.1434 314.0517 15.34007588 87093 GEOSCAN 2 (RS92S2) 1 64890U 25155Q 26209.14664713 .00012925 00000+0 42277-3 0 9999 2 64890 97.4574 178.2393 0007821 35.7026 324.4737 15.31808040 87059 GEOSCAN 5 (RS92S5) 1 64891U 25155R 26209.17889573 .00016675 00000+0 50348-3 0 9990 2 64891 97.4566 178.9629 0007702 52.2913 307.9026 15.34306429 87107 GEOSCAN 4 (RS92S4) 1 64892U 25155S 26209.15870990 .00017417 00000+0 52284-3 0 9998 2 64892 97.4571 179.0037 0007554 52.7251 307.4680 15.34482413 87103 GEOSCAN 3 (RS92S3) 1 64893U 25155T 26209.16824016 .00022055 00000+0 61532-3 0 9998 2 64893 97.4557 179.5688 0007602 54.2010 305.9940 15.36733022 87142 INNOSAT 3 (RS92S0) 1 64894U 25155U 26209.17310156 .00050362 00000+0 10014-2 0 9995 2 64894 97.4499 181.7441 0006867 63.3691 296.8262 15.46772948 87290 KNACKSAT-2 1 67683U 98067XZ 26208.91858738 .00060850 00000+0 64120-3 0 9991 2 67683 51.6280 89.0474 0007053 7.4159 352.6938 15.63640221 26641